Location: Castelbiague
(43.0361°N, 0.9246°E)
Time: 09:04:12
(UTC+00:00)

Terra - Pass Details

Date: 17 June 2021
Orbit: 701 x 703 km, 98.2° (Epoch: 03 August)

Event Time Altitude Azimuth Distance (km) Brightness Sun altitude
Exits shadow 20:10:12 - 101° (ESE) 2,772 4.3 -5.5°
Reaches altitude 10° 20:13:11 10° 73° (ENE) 2,175 4.0 -5.9°
Maximum altitude 20:14:26 11° 58° (ENE) 2,111 4.1 -6.1°
Drops below altitude 10° 20:15:40 10° 43° (NE) 2,179 4.4 -6.3°
Sets 20:19:44 0° 8° (N) 3,103 5.6 -6.9°
